Meteo Giornale » Osservazioni meteo Slovenia » Portoroz

ore: 09:00 - Osservazioni Meteo Portoroz
Lat. 45° 31' N Lon. 13° 34' E Alt. 95 metri s.l.m.

sereno Europe/Ljubljana

26 °C

Sereno

Temp. 24 Ore

19 °C

30 °C

Nord

3.7 Km/h

Dew point 18 °C

Umidità 61 %

Visibilità  10 Km

Il sole sorge alle ore 05:39

Il sole tramonta alle ore 20:45

Data e Ora Cielo e Fenomeni T °C DP °C Um. % Pres. hPa Vis. km Vento km/h
Oggi h: 09:00 sereno Sereno 26 18 61 1013 10 N 3.7
Oggi h: 08:30 sereno Sereno 24 18 69 1012 10 E/SE 7.4
Oggi h: 08:00 sereno Sereno 23 18 73 1012 10 E/SE 11.1
Oggi h: 07:30 sereno Sereno 21 17 77 1013 10 E/SE 13
Oggi h: 07:00 sereno Sereno 20 17 82 1013 10 E/SE 14.8
Oggi h: 06:30 sereno Sereno 20 17 82 1013 10 E/SE 13
Oggi h: 06:00 sereno Sereno 19 17 88 1013 10 E/SE 11.1
Oggi h: 05:30 sereno Sereno 19 17 88 1013 10 E/SE 11.1
Oggi h: 05:00 sereno Sereno 19 17 88 1013 10 E/SE 13
Oggi h: 04:30 sereno Sereno 20 17 82 1013 10 E/SE 11.1
Oggi h: 04:00 sereno Sereno 20 17 82 1013 10 E/SE 13
Oggi h: 03:30 sereno Sereno 20 17 82 1013 10 E/SE 13
Oggi h: 03:00 sereno Sereno 20 18 88 1013 10 SE 14.8
Oggi h: 02:30 sereno Sereno 20 18 88 1014 10 E/SE 13
Oggi h: 02:00 sereno Sereno 20 18 88 1014 10 SE 13
Oggi h: 01:30 sereno Sereno 20 18 88 1014 10 E/SE 13
Oggi h: 01:00 sereno Sereno 21 18 82 1014 10 E/SE 13
Oggi h: 00:30 sereno Sereno 21 19 88 1014 10 E/SE 11.1
Oggi h: 00:00 sereno Sereno 21 19 88 1014 10 E/SE 9.3
Ieri h: 23:30 sereno Sereno 22 19 83 1014 10 E/SE 7.4
Ieri h: 23:00 sereno Sereno 22 19 83 1014 10 E/SE 9.3
Ieri h: 22:30 sereno Sereno 23 20 83 1014 10 N 5.5
Ieri h: 21:30 sereno Sereno 25 20 73 1014 10 N 3.7
Ieri h: 20:30 poco_nuvoloso Poco Nuvoloso 27 19 61 1013 10 N 1.8
Ieri h: 19:30 poco_nuvoloso Poco Nuvoloso 28 18 54 1013 10 O/SO 7.4
Ieri h: 19:00 poco_nuvoloso Poco Nuvoloso 28 19 58 1013 10 N 5.5
Ieri h: 18:30 poco_nuvoloso Poco Nuvoloso 29 20 58 1013 10 SO 13
Ieri h: 18:00 poco_nuvoloso Poco Nuvoloso 30 18 48 1013 10 SO 11.1
Ieri h: 17:30 poco_nuvoloso Poco Nuvoloso 30 19 51 1013 10 O/SO 11.1
Ieri h: 17:00 poco_nuvoloso Poco Nuvoloso 30 17 45 1013 10 O 7.4
Ieri h: 16:30 poco_nuvoloso Poco Nuvoloso 30 18 48 1013 10 O/SO 9.3
Ieri h: 16:00 poco_nuvoloso Poco Nuvoloso 30 18 48 1013 10 SO 11.1
Ieri h: 15:30 poco_nuvoloso Poco Nuvoloso 30 19 51 1013 10 SO 13
Ieri h: 15:00 poco_nuvoloso Poco Nuvoloso 30 19 51 1013 10 O/SO 14.8
Ieri h: 14:30 poco_nuvoloso Poco Nuvoloso 30 19 51 1014 10 O/SO 13
Ieri h: 14:00 poco_nuvoloso Poco Nuvoloso 30 18 48 1014 10 O/SO 11.1
Ieri h: 13:30 poco_nuvoloso Poco Nuvoloso 30 18 48 1014 10 O 9.3
Ieri h: 13:00 poco_nuvoloso Poco Nuvoloso 29 20 58 1014 10 NO 9.3
Ieri h: 12:30 poco_nuvoloso Poco Nuvoloso 28 19 58 1015 10 NO 11.1
Ieri h: 12:00 poco_nuvoloso Poco Nuvoloso 28 19 58 1015 10 NO 11.1
Ieri h: 11:30 sereno Sereno 28 19 58 1015 10 O/NO 13
Ieri h: 11:00 sereno Sereno 29 19 54 1015 10 O/NO 7.4
Ieri h: 10:30 sereno Sereno 27 18 57 1015 10 N 3.7
Ieri h: 10:00 sereno Sereno 26 19 65 1015 10 N 3.7